Location: Arcadia
(34.1397°N, 118.0353°W)
Time: 22:46:15
(UTC+00:00)

Cosmos 1812 - Pass Details

Date: 08 September 2024
Orbit: 452 x 455 km, 82.5° (Epoch: 13 October)

Event Time Altitude Azimuth Distance (km) Brightness Sun altitude
Rises 11:10:54 0° 130° (SE) 2,468 6.4 -28.3°
Enters shadow 12:22:14 -49° 188° (S) 10,201 9.2 -14.7°
Maximum altitude 12:48:45 42° 279° (W) 666 2.8 -9.4°
